{"data":{"norad_id":65758,"intl_designator":"2025-216AA","name":"STARLINK-35313","alt_names":[],"object_type":"PAYLOAD","status":"ACTIVE","operator":null,"country":"US","launch_date":"2025-09-25","launch_site_code":"AFETR","launch_vehicle":null,"mission":null,"orbit_class":"UNKNOWN","rcs_meters":null,"size_class":null,"mass_kg":null,"dimensions":null,"purposes":["comms"],"wikipedia_slug":null,"has_3d_model":false,"image_url":null,"decayed_at":null,"tle_current":{"epoch":"2026-09-20T23:11:28.741632Z","epoch_age_seconds":68308,"freshness":"FRESH","line1":"1 65758U 25216AA  26263.96630488  .00020147  00000+0  60551-3 0  9993","line2":"2 65758  53.1601 143.5516 0002523  89.4692 270.6599 15.34415092 56434","mean_motion":15.34415092,"eccentricity":0.0002523,"inclination_deg":53.1601,"raan_deg":143.5516,"arg_perigee_deg":89.4692,"mean_anomaly_deg":270.6599,"bstar":0.00060551,"rev_number":5643,"period_min":93.846835025786,"perigee_km":460.9324512949,"apogee_km":464.38431664565,"semimajor_km":6840.7953839703,"source":"CELESTRAK","updated_at":"2026-09-21T09:00:35.712073Z"}}}